EDT,Max TemperatureF,Mean TemperatureF,Min TemperatureF,Max Dew PointF,MeanDew PointF,Min DewpointF,Max Humidity, Mean Humidity, Min Humidity, Max Sea Level PressureIn, Mean Sea Level PressureIn, Min Sea Level PressureIn, Max VisibilityMiles, Mean VisibilityMiles, Min VisibilityMiles, Max Wind SpeedMPH, Mean Wind SpeedMPH, Max Gust SpeedMPH,PrecipitationIn, CloudCover, Events, WindDirDegrees
2012-10-1,78,72,66,72,69,66,100,95,78,29.78,29.68,29.60,10,8,2,15,6,23,0.79,8,Rain,124
2012-10-2,72,67,62,72,64,61,100,94,81,30.01,29.85,29.63,10,8,2,8,3,,0.16,8,Rain,166
2012-10-3,71,62,55,61,57,55,100,95,59,30.20,30.09,30.00,10,4,0,6,0,,0.01,4,Fog,-1
2012-10-4,80,66,53,61,56,54,100,90,44,30.32,30.24,30.19,10,5,0,7,0,,0.00,2,Fog,18
2012-10-5,82,66,51,64,56,52,100,88,42,30.23,30.15,30.01,10,5,0,4,0,,0.01,2,Fog,150
2012-10-6,80,66,53,63,57,51,100,84,56,30.06,30.01,29.94,10,7,2,9,2,17,0.00,3,,348
2012-10-7,62,56,51,52,48,42,90,76,51,30.12,30.07,30.00,10,10,10,8,2,20,0.00,4,,344
2012-10-8,55,52,48,49,47,45,93,85,77,30.20,30.13,30.07,10,10,7,7,2,,0.00,7,,354
2012-10-9,68,58,46,54,50,47,100,85,52,30.17,30.12,30.04,10,10,6,4,0,,0.00,6,,65
2012-10-10,73,60,46,56,52,46,100,84,51,30.19,30.13,30.08,10,9,5,6,1,,0.00,3,,85
2012-10-11,73,59,45,53,48,40,100,79,31,30.30,30.24,30.18,10,9,4,4,1,,0.01,1,,5
2012-10-12,75,66,57,63,58,54,96,82,62,30.29,30.24,30.20,10,10,10,8,1,,0.00,6,,180
2012-10-13,75,65,55,61,57,53,100,82,48,30.33,30.28,30.22,10,7,0,13,2,18,0.00,2,Fog,99
2012-10-14,77,67,59,63,58,51,88,76,62,30.25,30.15,29.98,10,10,10,8,5,,0.00,6,,130
2012-10-15,75,64,50,65,57,42,100,77,35,29.97,29.93,29.89,10,9,5,8,3,,0.16,4,Rain,194
2012-10-16,73,58,43,49,44,37,100,72,28,30.01,29.95,29.88,10,10,10,9,1,,0.00,0,,353
2012-10-17,75,60,46,51,47,41,100,68,30,29.96,29.88,29.78,10,10,9,12,2,17,0.00,0,,149
2012-10-18,75,64,52,63,56,47,100,80,53,29.85,29.81,29.76,10,9,2,7,2,,0.11,4,Rain-Thunderstorm,133
2012-10-19,72,55,39,48,39,27,100,63,20,29.84,29.80,29.74,10,10,10,9,1,23,0.00,1,,220
2012-10-20,69,54,39,47,43,39,100,73,43,30.01,29.92,29.83,10,10,10,6,1,,0.00,0,,340
2012-10-21,75,57,39,48,45,39,100,75,32,30.18,30.11,30.01,10,10,6,7,1,,0.00,0,,10
2012-10-22,80,61,43,55,49,43,100,75,36,30.23,30.16,30.11,10,10,10,6,1,,0.00,0,,33
2012-10-23,78,63,48,54,51,47,100,77,36,30.21,30.14,30.09,10,10,6,5,1,,0.00,0,,95
2012-10-24,80,63,46,57,52,46,100,78,40,30.20,30.13,30.06,10,9,6,6,1,,0.00,0,,33
2012-10-25,80,64,50,59,55,50,100,78,42,30.12,30.06,30.02,10,10,9,7,2,16,0.00,1,,106
2012-10-26,81,68,57,61,58,55,97,73,43,30.06,29.99,29.90,10,10,10,9,1,,0.00,2,,134
2012-10-27,60,56,52,58,52,46,100,83,69,29.93,29.88,29.84,10,10,7,12,4,20,0.00,7,,331
2012-10-28,54,50,48,46,42,36,86,73,62,29.94,29.87,29.81,10,10,10,15,6,25,0.00,8,,341
2012-10-29,55,48,43,36,30,21,65,50,35,29.95,29.89,29.81,10,10,10,12,8,26,0.00,3,,339
2012-10-30,55,48,41,29,24,18,60,43,24,29.84,29.77,29.72,10,10,10,6,1,,0.00,0,,-1
2012-10-31,63,48,35,33,26,17,82,50,18,29.91,29.87,29.84,10,10,10,6,1,,0.00,0,,-1